Location: Charlottetown
(46.2330°N, 63.1330°W)
Time: 21:09:49
(UTC-03:00)

Daily predictions for brighter satellites

Satellite Brightness Start Highest point End
(mag) Time Altitude Azimuth Time Altitude Azimuth Time Altitude Azimuth
Cosmos 1461 3.6 20:20:45 10° NW 20:24:45 52° WSW 20:28:35 10° SSE
Cosmos 1821 Rocket 4.0 20:19:51 10° S 20:25:57 90° E 20:32:05 10° N
Cosmos 1536 4.1 20:23:35 10° SSW 20:27:27 47° WNW 20:31:23 10° N
Cosmos 1605 Rocket 4.1 20:22:59 10° S 20:29:09 58° E 20:35:17 10° NNE
EP 1 4.1 20:34:24 10° SW 20:36:58 83° ESE 20:39:42 10° NE
Cosmos 1697 Rocket 3.4 20:33:02 10° SSE 20:37:58 32° ESE 20:42:56 10° NE
ATLAS CENTAUR R/B 4.3 20:34:29 10° W 20:38:26 23° NW 20:42:18 10° NNE
RESURS DK-1 3.1 20:35:57 10° NNW 20:39:51 38° NE 20:43:41 10° SE
Cosmos 2208 Rocket 4.2 20:35:22 10° SSW 20:40:43 84° WNW 20:46:11 10° NNE
Cosmos 1743 4.3 20:38:40 10° SE 20:41:16 17° E 20:43:53 10° NE
CZ-4B DEB 3.5 20:38:04 10° S 20:41:19 58° W 20:44:35 10° NNW
Iridium 4 Rocket 3.6 20:37:30 10° N 20:42:27 49° E 20:46:57 10° SSE
Tiangong 1 1.8 20:41:24 10° WSW 20:44:21 40° S 20:46:51 13° ESE
Cosmos 2298 Rocket 4.1 20:39:43 10° NNW 20:45:02 67° ENE 20:50:20 10° SSE
H-2A R/B 3.5 20:43:37 11° ESE 20:46:29 20° ENE 20:49:34 10° NNE
Cosmos 1626 Rocket 3.5 20:42:05 10° N 20:46:30 73° E 20:50:51 10° SSE
Cosmos 1937 Rocket 3.9 20:41:40 10° NNW 20:46:46 47° ENE 20:51:51 10° SE
Cosmos 2278 3.8 20:41:58 10° SSW 20:47:39 86° WNW 20:53:25 10° NNE
Envisat 3.8 20:43:29 10° SE 20:48:01 34° ENE 20:52:34 10° N
YAOGAN 11 4.5 20:47:16 10° SE 20:51:34 47° ENE 20:55:51 10° N
Cosmos 2084 3.4 20:48:18 10° NW 20:52:20 79° SW 20:56:32 10° SE
Cosmos 1455 Rocket 3.6 20:49:18 10° SSW 20:53:35 63° W 20:57:57 10° N
Cosmos 1602 Rocket 3.6 20:51:46 10° N 20:56:16 89° W 21:00:41 10° S
Cosmos 2123 Rocket 4.4 20:50:14 10° NNW 20:56:22 66° W 21:02:27 10° S
EO 1 Delta rocket 4.0 20:51:59 10° N 20:56:40 87° E 21:02:02 10° S
Cosmos 990 Rocket 4.5 20:52:41 10° N 20:57:43 44° ENE 21:01:54 14° SE
Cosmos 220 Rocket 4.4 20:56:45 10° NNW 21:00:56 61° WSW 21:05:04 10° S
Cosmos 1980 Rocket 2.9 20:56:35 10° SSE 21:01:28 31° ESE 21:06:24 10° NE
Lacrosse 5 1.9 20:56:25 10° NW 21:01:31 87° SW 21:05:41 15° SE
Cosmos 2369 4.0 20:56:30 10° SSW 21:02:11 75° WNW 21:07:56 10° NNE
H-2A R/B 3.7 21:02:59 10° S 21:06:48 51° W 21:10:40 10° NNW
Cosmos 1459 Rocket 4.2 21:02:29 10° SSE 21:08:13 47° E 21:14:03 10° NNE
H-2A R/B 4.1 21:07:10 10° ENE 21:08:14 11° NE 21:09:18 10° NE
Cosmos 2150 Rocket 4.0 21:05:36 10° NNW 21:10:47 87° WSW 21:15:57 10° SSE
SPOT 5 3.6 21:10:06 18° ESE 21:13:12 35° ENE 21:17:30 10° N
ERS-1 Rocket 2.9 21:08:23 10° SSE 21:13:23 71° ENE 21:18:24 10° N
Cosmos 1975 3.1 21:10:58 10° SSW 21:15:03 71° W 21:19:11 10° N
Lacrosse 5 rocket 3.4 21:16:20 10° W 21:18:52 18° SW 21:21:21 10° SSW
BREEZE-M DEB (TANK) 3.7 21:18:03 10° WNW 21:21:25 84° NNE 21:28:34 18° ESE
Cosmos 1656 3.7 21:16:11 10° SSW 21:21:48 88° WNW 21:27:23 10° NNE
Cosmos 2263 Rocket 3.7 21:20:21 10° N 21:24:38 22° NE 21:27:28 15° E
Cosmos 1763 Rocket 3.9 21:21:02 10° S 21:25:44 39° ESE 21:30:27 10° NE
Cosmos 1666 3.8 21:25:59 24° E 21:26:02 24° E 21:29:08 10° NE
Cosmos 1898 Rocket 4.0 21:21:49 10° NNW 21:27:03 61° WSW 21:32:13 10° S
SJ-11-01 4.3 21:22:40 10° S 21:27:22 80° WSW 21:32:05 10° NNW
Cosmos 2058 Rocket 4.0 21:26:31 25° ESE 21:27:41 29° E 21:31:34 10° NNE
Cosmos 2227 Rocket 4.1 21:23:33 10° NW 21:28:14 27° WSW 21:32:53 10° SSW
Cosmos 1606 Rocket 3.8 21:29:28 20° SSE 21:32:14 48° E 21:36:31 10° NNE
Cosmos 1125 Rocket 4.2 21:28:20 10° N 21:33:11 37° ENE 21:35:24 26° ESE
Cosmos 2322 Rocket 3.3 21:35:11 23° E 21:35:11 23° E 21:39:17 10° NE
USA 215 4.0 21:31:23 15° E 21:36:36 46° NNE 21:42:46 10° NW
CZ-4 DEB 3.6 21:34:36 16° S 21:36:54 47° W 21:39:58 10° NNW
Cosmos 1500 3.7 21:33:18 10° SSW 21:37:01 59° W 21:40:46 10° N
Terra 3.7 21:37:00 14° ENE 21:37:59 15° ENE 21:40:38 10° NNE
YAOGAN 6 3.1 21:41:44 39° ESE 21:42:25 44° ENE 21:45:59 10° N
Meteor 1-21 4.2 21:36:49 10° N 21:42:38 81° E 21:46:40 21° SSE
Cosmos 468 Rocket 4.1 21:38:01 10° SSW 21:43:08 75° WNW 21:48:18 10° NNE
Cosmos 2297 Rocket 4.0 21:38:36 10° NW 21:43:21 28° WSW 21:48:06 10° SSW
Cosmos 1340 2.6 21:40:01 10° N 21:43:49 89° NE 21:45:27 33° S
Cosmos 1802 Rocket 4.0 21:39:48 10° S 21:46:11 78° E 21:52:38 10° N
Meteor 2-9 Rocket 4.4 21:45:10 28° SE 21:47:34 44° E 21:52:39 10° NNE
Cosmos 2360 4.3 21:43:20 10° S 21:48:51 52° ESE 21:54:23 10° NE
Cosmos 841 Rocket 3.5 21:43:58 10° S 21:49:04 56° ESE 21:54:10 10° NNE
Cosmos 1939 Rocket 3.5 21:49:05 19° S 21:51:57 55° W 21:56:04 10° NNW
Cosmos 2227 4.2 21:46:40 10° NNW 21:52:28 86° WSW 21:55:28 30° SSE
Cosmos 1814 Rocket 4.3 21:49:25 10° SSW 21:54:45 71° WNW 22:00:03 10° NNE
MetOp-A 4.1 21:52:26 30° SSE 21:55:08 76° ENE 22:00:31 10° NNW
Cosmos 1726 Rocket 3.4 21:53:15 31° S 21:55:17 71° E 21:59:42 10° NNE
Cosmos 2016 Rocket 3.9 21:50:25 10° S 21:56:30 79° E 22:02:44 10° N
ASTEX 1 3.3 21:58:44 10° N 22:03:46 77° E 22:06:04 33° S
Cosmos 405 Rocket 3.8 22:00:35 10° N 22:03:25 30° NE 22:03:25 30° NE
Cosmos 1825 Rocket 4.4 22:02:46 10° NNW 22:07:02 47° W 22:09:41 21° SSW
Cosmos 2173 Rocket 4.4 22:02:30 10° SSW 22:08:49 65° W 22:15:07 10° N
Cosmos 372 Rocket 4.2 22:08:53 10° NNW 22:13:53 50° ENE 22:14:45 45° E
Cosmos 1743 4.1 22:13:09 10° SW 22:16:50 38° WNW 22:20:31 10° N
RESURS DK-1 4.4 22:14:27 10° NW 22:17:42 22° WSW 22:19:38 16° SW
Cosmos 1953 Rocket 4.3 22:13:40 10° NNW 22:17:59 50° W 22:19:56 29° SSW
Tiangong 1 3.7 22:18:10 10° WSW 22:18:49 13° WSW 22:18:49 13° WSW
BREEZE-M DEB (TANK) 3.2 22:10:21 10° WSW 22:21:22 68° SSE 22:22:26 51° ESE
CZ-4C R/B 4.4 22:21:43 37° ENE 22:21:43 37° ENE 22:25:30 10° N
Cosmos 1697 Rocket 3.8 22:16:24 10° SW 22:21:47 44° NW 22:27:11 10° NNE
H-2A R/B 3.0 22:20:46 29° SW 22:22:15 41° W 22:26:12 10° NNW
Cosmos 1864 Rocket 4.3 22:21:37 31° S 22:24:48 85° E 22:30:58 10° N
Envisat 4.4 22:23:26 15° SSW 22:27:00 34° W 22:31:37 10° NNW
USA 245 4.5 22:24:52 38° S 22:27:29 83° WSW 22:33:50 10° NNW
SL-08 RB Rocket 3.6 22:27:45 70° ESE 22:28:06 75° ENE 22:32:45 10° N
Cosmos 2228 2.8 22:30:30 87° NE 22:30:30 87° NE 22:34:45 10° N
Tsikada Rocket 4.1 22:25:16 10° N 22:31:43 78° W 22:34:27 37° S
SL-16 R/B 2.1 22:31:23 58° SE 22:31:45 60° ESE 22:37:20 10° NNE
NOAA 11 4.1 22:31:33 52° S 22:32:59 84° WSW 22:38:29 10° NNW
ARGOS 3.1 22:34:52 54° S 22:36:07 81° WSW 22:41:33 10° NNW
Cosmos 1844 Rocket 4.4 22:32:31 10° N 22:36:32 20° NE 22:37:50 18° ENE
SL-19 R/B 4.0 22:31:41 10° NNE 22:37:12 88° ESE 22:38:37 51° SSW
Cosmos 2346 Rocket 4.4 22:31:42 10° N 22:37:55 67° E 22:39:00 56° SE
SWAS 4.5 22:38:51 78° NW 22:38:51 78° NW 22:43:10 10° NNE
CZ-4B R/B 3.2 22:35:34 10° NNE 22:40:07 72° ENE 22:40:07 72° ENE
Lacrosse 5 3.8 22:40:34 10° W 22:43:50 17° WSW 22:44:53 16° SW
Cosmos 1980 Rocket 3.2 22:39:50 10° SW 22:45:16 46° WNW 22:50:47 10° NNE
Cosmos 2360 Rocket 3.7 22:48:24 22° ENE 22:48:24 22° ENE 22:50:44 10° NE
GP-B 4.0 22:41:40 10° NNE 22:44:45 38° NE 22:44:45 38° NE
H-2A R/B 1.9 22:46:51 69° ENE 22:46:51 69° ENE 22:51:41 10° N
BREEZE-M DEB (TANK) 4.5 22:12:19 10° WNW 22:47:43 83° SSW 22:50:39 46° SE
SPOT 5 4.4 22:49:22 24° SW 22:51:16 31° W 22:55:31 10° NW
Meteor 2-17 Rocket 4.3 22:52:21 56° SSW 22:53:46 87° W 22:59:51 10° N
Cosmos 1707 4.2 22:50:48 10° N 22:53:08 33° NNE 22:53:08 33° NNE
Cosmos 332 Rocket 3.9 22:57:15 69° NNE 22:57:15 69° NNE 23:01:36 10° NNE
Landsat 7 3.9 23:00:07 74° WNW 23:00:07 74° WNW 23:04:36 10° NNW
Cosmos 371 Rocket 4.2 23:01:35 38° NE 23:01:35 38° NE 23:04:38 10° NNE
Cosmos 783 Rocket 4.5 23:04:58 81° N 23:04:58 81° N 23:10:01 10° NNE
SPOT 1/Viking Rocket 4.5 23:05:15 37° SW 23:06:12 41° W 23:11:08 10° NNW
Cosmos 2263 Rocket 2.1 23:03:36 10° NNW 23:09:09 75° WSW 23:09:09 75° WSW
Meteor 2-5 Rocket 3.8 23:06:54 10° NNW 23:12:50 76° W 23:13:10 74° SW
Terra 2.2 23:15:54 61° NW 23:15:54 61° NW 23:19:55 10° NNW
Cosmos 1072 Rocket 4.5 23:15:57 68° ENE 23:15:57 68° ENE 23:21:51 10° NNE
Cosmos 2322 Rocket 2.6 23:16:55 42° WSW 23:18:35 59° WNW 23:24:10 10° NNE
USA 215 3.1 23:18:44 74° SSE 23:19:20 82° SW 23:25:56 10° NW
CZ-4 R/B 4.3 23:15:16 10° N 23:19:37 58° NW 23:19:37 58° NW
Cosmos 2233 Rocket 4.4 23:19:10 45° SW 23:20:49 59° WNW 23:27:01 10° N
BREEZE-M DEB (TANK) 3.9 23:10:52 10° WNW 23:25:41 58° SW 23:25:51 58° SW
Meteor 1-24 Rocket 3.8 23:22:09 10° N 23:27:57 82° NNE 23:27:57 82° NNE
Lacrosse 4 Rocket 4.2 23:43:18 12° NE 23:43:18 12° NE 23:43:36 10° NE
Cosmos 2034 Rocket 4.1 23:45:27 66° NE 23:45:27 66° NE 23:50:48 10° N
COSMOS 2428 4.3 23:48:56 25° NE 23:48:56 25° NE 23:51:28 10° NE
